Home > Weather > Ocala > Past weeks

Flag for USA Past Weather in Ocala, Florida, USA — Yesterday and Last 2 Weeks

Now
70 °F

Clear.


Feels Like: 70 °F
Forecast: 74 / 90 °F
Wind: No wind

Location: Ocala Municipal

Current Time: Jun 27, 2016 at 7:26:01 AM

Latest Report: Jun 27, 2016 at 6:50 AM


Visibility: 10 mi

Pressure: 30.09 "Hg

Humidity: 88%

Dew Point: 66 °F

Location of OcalaLocation

Past Weather in Ocala — Graph

°F

Ocala Temperature Yesterday

Maximum temperature yesterday: 95 °F (at 1:50 PM)
Minimum temperature yesterday: 73 °F (at 2:55 AM)
Average temperature yesterday: 78 °F

High & Low Weather Summary for the Past Weeks

 TemperatureHumidityPressure
High95 °F (Jun 13, 3:50 PM)94% (Jun 12, 6:15 AM)30.24 "Hg (Jun 12, 6:15 AM)
Low63 °F (Jun 21, 4:35 AM)31% (Jun 22, 1:50 PM)29.86 "Hg (Jun 17, 6:50 PM)
Average78 °F75%30.06 "Hg
* Reported Jun 12 6:15 AM — Jun 27 6:15 AM, Ocala, Weather by CustomWeather, © 2016

Note: Actual official high and low records may vary slightly from our data, if they occured in-between our weather recording intervals... More about our weather records

Advertising

Ocala Weather History for the Previous 24 Hours

Scroll right to see more
 ConditionsComfort  
Time TempWeatherWind HumidityBarometerVisibility
6:15 AM
Mon, Jun 27
70 °FClear.No wind88%30.08 "Hg10 mi
5:55 AM70 °FClear.No wind88%30.08 "Hg9 mi
5:35 AM72 °FClear.No wind83%30.08 "Hg10 mi
5:15 AM72 °FClear.No wind88%30.07 "Hg10 mi
4:55 AM72 °FClear.3 mph88%30.07 "Hg10 mi
4:35 AM72 °FClear.No wind88%30.06 "Hg10 mi
4:15 AM72 °FClear.No wind88%30.06 "Hg10 mi
3:55 AM72 °FClear.No wind88%30.05 "Hg10 mi
3:35 AM72 °FClear.No wind88%30.06 "Hg10 mi
3:15 AM72 °FClear.No wind88%30.06 "Hg10 mi
2:55 AM72 °FClear.No wind88%30.06 "Hg10 mi
2:35 AM72 °FClear.3 mph88%30.07 "Hg10 mi
2:15 AM72 °FClear.3 mph94%30.07 "Hg10 mi
1:55 AM72 °FClear.5 mph94%30.07 "Hg10 mi
1:35 AM73 °FClear.No wind89%30.08 "Hg10 mi
1:15 AM73 °FClear.3 mph89%30.08 "Hg10 mi
12:55 AM73 °FClear.3 mph89%30.09 "Hg10 mi
12:35 AM73 °FClear.No wind89%30.09 "Hg10 mi
12:15 AM73 °FClear.No wind89%30.09 "Hg10 mi
11:55 PM
Sun, Jun 26
73 °FClear.No wind89%30.10 "Hg10 mi
11:35 PM73 °FClear.3 mph89%30.09 "Hg10 mi
11:15 PM73 °FClear.No wind89%30.09 "Hg10 mi
10:55 PM75 °FClear.No wind78%30.09 "Hg10 mi
10:35 PM75 °FClear.No wind78%30.09 "Hg10 mi
10:15 PM75 °FClear.No wind78%30.09 "Hg10 mi
9:55 PM75 °FClear.No wind78%30.10 "Hg10 mi
9:35 PM77 °FClear.3 mph74%30.10 "Hg10 mi
9:15 PM79 °FSunny.3 mph70%30.10 "Hg10 mi
8:55 PM79 °FSunny.5 mph65%30.10 "Hg10 mi
8:35 PM81 °FSunny.3 mph62%30.09 "Hg10 mi
8:15 PM81 °FSunny.3 mph62%30.08 "Hg10 mi
7:55 PM81 °FSunny.No wind62%30.08 "Hg10 mi
5:50 PM84 °FSunny.7 mph62%30.09 "Hg10 mi
4:50 PM88 °FScattered clouds.8 mph49%30.08 "Hg10 mi
3:50 PM91 °FScattered clouds.7 mph49%30.09 "Hg10 mi
2:50 PM91 °FThunderstorms. Cloudy.3 mph52%30.08 "HgN/A
1:50 PM95 °FThunderstorms. Cloudy.6 mph50%30.10 "HgN/A
12:50 PM91 °FScattered clouds.7 mph52%30.12 "Hg10 mi
11:50 AM90 °FScattered clouds.5 mph59%30.13 "Hg10 mi
9:50 AM84 °FPassing clouds.8 mph70%30.14 "Hg10 mi
8:50 AM82 °FSunny.5 mph74%30.13 "Hg10 mi
7:50 AM75 °FSunny.No wind89%30.12 "Hg10 mi
Weather by CustomWeather, © 2016

See weather overviewHow to use our weather pages